FW6455 Weather Reports


Display with metric or nautical units.
time (UTC)temp
F
wind
direction
speed
MPH
gust
MPH
rain 1hr
in
rain 24hr
in
rain mn
in
humidity
%
barometer
mb
20260903063538 78 0 0.0 0.0 0.00 0.00 0.00 81 1014.1
20260903063100 78 0 0.0 0.0 0.00 0.00 0.00 81 1014.2
20260903062542 78 0 0.0 0.0 0.00 0.00 0.00 81 1014.2
20260903062039 78 0 0.0 0.0 0.00 0.00 0.00 81 1014.1
20260903061604 78 0 0.0 0.0 0.00 0.00 0.00 81 1014.1
20260903061038 78 0 0.0 0.0 0.00 0.00 0.00 80 1014.1
20260903060539 79 0 0.0 0.0 0.00 0.00 0.00 80 1014.1
20260903060107 79 0 0.0 1.0 0.00 0.00 0.00 80 1014.3
20260903055539 79 0 0.0 1.0 0.00 0.00 0.00 80 1014.4
20260903055038 79 0 0.0 1.0 0.00 0.00 0.00 79 1014.6
20260903054559 79 0 0.0 1.0 0.00 0.00 0.00 79 1014.6
20260903054038 79 0 0.0 0.0 0.00 0.00 0.00 79 1014.5
20260903053539 79 0 0.0 5.0 0.00 0.00 0.00 79 1014.6
20260903053110 79 0 0.0 6.0 0.00 0.00 0.00 79 1014.7
20260903052538 80 67 0.0 6.0 0.00 0.00 0.00 78 1014.6
20260903052036 80 79 1.0 6.0 0.00 0.00 0.00 78 1014.7
20260903051606 80 68 1.0 8.0 0.00 0.00 0.00 78 1014.8
20260903051039 80 54 3.0 8.0 0.00 0.00 0.00 77 1014.7
20260903050539 80 100 2.0 4.0 0.00 0.00 0.00 76 1014.7
20260903050107 80 58 0.0 4.0 0.00 0.00 0.00 75 1014.7
20260903045538 81 107 2.0 8.0 0.00 0.00 0.00 75 1014.7
20260903045036 81 105 1.0 8.0 0.00 0.00 0.00 74 1014.7
20260903044606 81 60 1.0 6.0 0.00 0.00 0.00 74 1014.7
20260903044038 81 82 3.0 10.0 0.00 0.00 0.00 73 1014.7
20260903043539 81 84 2.0 10.0 0.00 0.00 0.00 73 1014.6
20260903043107 82 99 3.0 7.0 0.00 0.00 0.00 72 1014.6
20260903042537 82 68 3.0 7.0 0.00 0.00 0.00 72 1014.6
20260903042038 82 76 1.0 10.0 0.00 0.00 0.00 72 1014.4
20260903041606 82 84 1.0 10.0 0.00 0.00 0.00 72 1014.4
20260903041037 82 66 2.0 5.0 0.00 0.00 0.00 72 1014.5
20260903040537 82 68 1.0 7.0 0.00 0.00 0.00 71 1014.5
20260903040109 82 54 2.0 7.0 0.00 0.00 0.00 71 1014.6
20260903035536 82 61 2.0 6.0 0.00 0.00 0.00 71 1014.6
20260903035036 82 106 2.0 6.0 0.00 0.00 0.00 71 1014.5
20260903034607 83 62 2.0 7.0 0.00 0.00 0.00 70 1014.4
20260903034036 83 63 2.0 7.0 0.00 0.00 0.00 70 1014.5
20260903033539 83 89 1.0 5.0 0.00 0.00 0.00 70 1014.5
20260903033057 83 115 2.0 7.0 0.00 0.00 0.00 70 1014.4
20260903032537 83 87 1.0 7.0 0.00 0.00 0.00 69 1014.4
20260903032037 83 107 2.0 7.0 0.00 0.00 0.00 69 1014.4
20260903031619 83 96 3.0 10.0 0.00 0.00 0.00 69 1014.5
20260903031037 84 109 2.0 10.0 0.00 0.00 0.00 68 1014.5
20260903030537 84 53 4.0 9.0 0.00 0.00 0.00 68 1014.5
20260903030116 84 131 2.0 7.0 0.00 0.00 0.00 67 1014.5
20260903025538 84 91 3.0 7.0 0.00 0.00 0.00 67 1014.4
20260903025037 84 39 3.0 7.0 0.00 0.00 0.00 67 1014.4
20260903024559 85 102 1.0 10.0 0.00 0.00 0.00 66 1014.4
20260903024038 85 127 3.0 10.0 0.00 0.00 0.00 66 1014.3
20260903023538 85 91 2.0 7.0 0.00 0.00 0.00 66 1014.4
20260903023106 86 97 1.0 5.0 0.00 0.00 0.00 66 1014.3
20260903022538 86 112 1.0 5.0 0.00 0.00 0.00 65 1014.2
20260903022038 86 96 2.0 5.0 0.00 0.00 0.00 64 1014.1
20260903021604 86 96 1.0 4.0 0.00 0.00 0.00 63 1014.2
20260903021039 87 98 1.0 8.0 0.00 0.00 0.00 63 1014.2
20260903020538 87 122 2.0 8.0 0.00 0.00 0.00 63 1014.2
20260903020059 87 127 2.0 8.0 0.00 0.00 0.00 62 1014.1
20260903015538 87 86 1.0 6.0 0.00 0.00 0.00 62 1014.1
20260903015040 87 79 1.0 6.0 0.00 0.00 0.00 62 1014.1
20260903014610 87 78 1.0 6.0 0.00 0.00 0.00 61 1014.1
20260903014038 88 119 1.0 5.0 0.00 0.00 0.00 61 1014.0
20260903013538 88 106 1.0 4.0 0.00 0.00 0.00 61 1014.0
20260903013059 88 120 1.0 4.0 0.00 0.00 0.00 60 1013.9
20260903012538 88 0 0.0 4.0 0.00 0.00 0.00 60 1013.7
20260903012042 89 141 0.0 1.0 0.00 0.00 0.00 59 1013.7
20260903011616 89 195 0.0 1.0 0.00 0.00 0.00 58 1013.7
20260903011039 89 0 0.0 2.0 0.00 0.00 0.00 58 1013.5
20260903010541 89 126 0.0 5.0 0.00 0.00 0.00 57 1013.4
20260903010117 90 117 0.0 5.0 0.00 0.00 0.00 56 1013.4
20260903005541 90 96 1.0 4.0 0.00 0.00 0.00 56 1013.3
20260903005038 90 114 1.0 3.0 0.00 0.00 0.00 55 1013.3
20260903004600 91 98 0.0 3.0 0.00 0.00 0.00 55 1013.3
20260903004039 91 0 1.0 7.0 0.00 0.00 0.00 54 1013.3
20260903003536 91 139 1.0 7.0 0.00 0.00 0.00 53 1013.4
20260903003054 91 199 0.0 4.0 0.00 0.00 0.00 53 1013.3
20260903002539 92 120 1.0 4.0 0.00 0.00 0.00 53 1013.3
20260903002040 92 188 1.0 5.0 0.00 0.00 0.00 52 1013.4
20260903001602 92 0 0.0 5.0 0.00 0.00 0.00 52 1013.3
20260903001039 93 179 1.0 4.0 0.00 0.00 0.00 51 1013.3
20260903000539 93 149 1.0 7.0 0.00 0.00 0.00 51 1013.2
20260903000058 94 129 3.0 10.0 0.00 0.00 0.00 49 1013.2
20260902235539 94 134 4.0 10.0 0.00 0.00 0.00 47 1013.1
20260902235040 94 108 1.0 10.0 0.00 0.00 0.00 46 1012.9
20260902234558 95 83 3.0 10.0 0.00 0.00 0.00 46 1012.9
20260902234039 95 119 3.0 10.0 0.00 0.00 0.00 45 1012.8
20260902233542 95 155 2.0 8.0 0.00 0.00 0.00 45 1012.9
20260902233100 95 85 4.0 9.0 0.00 0.00 0.00 45 1012.9
20260902232539 95 91 2.0 9.0 0.00 0.00 0.00 45 1012.8
20260902232041 96 83 2.0 10.0 0.00 0.00 0.00 45 1012.8
20260902231612 96 15 3.0 10.0 0.00 0.00 0.00 46 1012.8
20260902231039 97 134 5.0 10.0 0.00 0.00 0.00 45 1012.7
20260902230538 97 101 3.0 8.0 0.00 0.00 0.00 45 1012.7
20260902230059 97 81 3.0 10.0 0.00 0.00 0.00 44 1012.5
20260902225541 97 60 3.0 10.0 0.00 0.00 0.00 45 1012.5
20260902225041 97 116 4.0 9.0 0.00 0.00 0.00 44 1012.5
20260902224605 97 98 2.0 10.0 0.00 0.00 0.00 46 1012.6
20260902224044 97 103 2.0 11.0 0.00 0.00 0.00 45 1012.5
20260902223540 98 64 4.0 11.0 0.00 0.00 0.00 45 1012.6
20260902223056 98 60 3.0 8.0 0.00 0.00 0.00 44 1012.5
20260902222541 98 22 3.0 8.0 0.00 0.00 0.00 43 1012.7
20260902222039 98 210 1.0 8.0 0.00 0.00 0.00 44 1012.6
20260902221623 97 117 4.0 8.0 0.00 0.00 0.00 42 1012.7
20260902221044 98 89 3.0 8.0 0.00 0.00 0.00 43 1012.7
20260902220542 97 99 1.0 7.0 0.00 0.00 0.00 45 1012.7
20260902215541 97 0 1.0 7.0 0.00 0.00 0.00 46 1012.9
20260902215040 98 65 3.0 7.0 0.00 0.00 0.00 45 1012.8
20260902214601 97 63 0.0 6.0 0.00 0.00 0.00 45 1012.9
20260902214040 97 100 2.0 7.0 0.00 0.00 0.00 45 1012.8
20260902213542 98 76 3.0 7.0 0.00 0.00 0.00 44 1013.0
20260902213105 98 91 2.0 6.0 0.00 0.00 0.00 44 1013.0
20260902212540 97 67 0.0 7.0 0.00 0.00 0.00 46 1013.1
20260902212041 97 0 2.0 7.0 0.00 0.00 0.00 45 1013.2
20260902211602 98 343 4.0 7.0 0.00 0.00 0.00 44 1013.3
20260902211040 97 93 2.0 7.0 0.00 0.00 0.00 45 1013.2
20260902210541 97 93 2.0 7.0 0.00 0.00 0.00 45 1013.2
20260902210106 98 347 3.0 8.0 0.00 0.00 0.00 45 1013.1
20260902205540 98 99 3.0 8.0 0.00 0.00 0.00 45 1013.2
20260902205040 98 113 2.0 8.0 0.00 0.00 0.00 45 1013.1
20260902204607 98 0 2.0 9.0 0.00 0.00 0.00 43 1013.3
20260902204041 98 77 3.0 9.0 0.00 0.00 0.00 44 1013.4
20260902203540 98 68 2.0 9.0 0.00 0.00 0.00 44 1013.6
20260902203107 98 35 2.0 9.0 0.00 0.00 0.00 43 1013.7
20260902202538 97 124 1.0 9.0 0.00 0.00 0.00 44 1013.7
20260902202040 97 78 2.0 11.0 0.00 0.00 0.00 44 1013.7
20260902201609 97 60 5.0 11.0 0.00 0.00 0.00 45 1013.7
20260902201037 97 0 2.0 5.0 0.00 0.00 0.00 45 1013.8
20260902200539 97 74 0.0 6.0 0.00 0.00 0.00 46 1013.8
20260902200057 98 59 2.0 6.0 0.00 0.00 0.00 45 1014.1
20260902195541 97 94 2.0 8.0 0.00 0.00 0.00 46 1014.2
20260902195041 97 95 2.0 8.0 0.00 0.00 0.00 46 1014.3
20260902194608 97 114 1.0 10.0 0.00 0.00 0.00 46 1014.3
20260902194040 97 87 2.0 10.0 0.00 0.00 0.00 46 1014.3
20260902193540 97 67 2.0 10.0 0.00 0.00 0.00 47 1014.5
20260902193108 97 105 2.0 5.0 0.00 0.00 0.00 47 1014.6
20260902192539 96 128 1.0 5.0 0.00 0.00 0.00 47 1014.6
20260902192040 97 97 1.0 4.0 0.00 0.00 0.00 47 1014.7
20260902191634 97 65 1.0 4.0 0.00 0.00 0.00 49 1014.8
20260902191040 97 0 0.0 4.0 0.00 0.00 0.00 49 1014.9
20260902190540 97 309 1.0 3.0 0.00 0.00 0.00 48 1015.0
20260902190101 96 314 0.0 8.0 0.00 0.00 0.00 49 1015.1
20260902185540 96 56 0.0 8.0 0.00 0.00 0.00 49 1015.1
20260902185042 96 60 1.0 8.0 0.00 0.00 0.00 49 1015.3
20260902184606 96 336 2.0 7.0 0.00 0.00 0.00 48 1015.4
20260902184037 96 65 2.0 5.0 0.00 0.00 0.00 48 1015.4
20260902183541 96 53 1.0 4.0 0.00 0.00 0.00 49 1015.5
20260902183129 95 285 0.0 5.0 0.00 0.00 0.00 51 1015.6
20260902182540 95 95 1.0 7.0 0.00 0.00 0.00 51 1015.7
20260902182041 95 70 2.0 8.0 0.00 0.00 0.00 50 1015.9
20260902181613 95 36 2.0 8.0 0.00 0.00 0.00 52 1016.0
20260902181039 95 94 3.0 4.0 0.00 0.00 0.00 51 1016.1
20260902180539 95 0 0.0 1.0 0.00 0.00 0.00 53 1016.2
20260902180109 95 302 0.0 4.0 0.00 0.00 0.00 53 1016.4
20260902175540 95 0 0.0 4.0 0.00 0.00 0.00 53 1016.5
20260902175040 94 350 0.0 5.0 0.00 0.00 0.00 55 1016.5
20260902174558 93 93 1.0 7.0 0.00 0.00 0.00 55 1016.6
20260902174044 92 81 2.0 7.0 0.00 0.00 0.00 54 1016.7
20260902173541 92 103 3.0 6.0 0.00 0.00 0.00 55 1016.7
20260902173108 92 53 1.0 6.0 0.00 0.00 0.00 56 1016.8
20260902172540 92 67 0.0 7.0 0.00 0.00 0.00 57 1016.9
20260902172041 91 82 3.0 7.0 0.00 0.00 0.00 58 1017.0
20260902171618 91 64 1.0 7.0 0.00 0.00 0.00 57 1017.0
20260902171041 91 317 4.0 7.0 0.00 0.00 0.00 57 1017.2
20260902170540 91 0 1.0 5.0 0.00 0.00 0.00 59 1017.2
20260902165541 90 88 0.0 7.0 0.00 0.00 0.00 61 1017.4
20260902165039 90 50 3.0 7.0 0.00 0.00 0.00 61 1017.4
20260902164605 91 0 1.0 6.0 0.00 0.00 0.00 59 1017.5
20260902164037 91 205 1.0 3.0 0.00 0.00 0.00 59 1017.6
20260902163540 90 86 1.0 7.0 0.00 0.00 0.00 61 1017.6
20260902163106 90 110 2.0 7.0 0.00 0.00 0.00 62 1017.6
20260902162541 90 0 0.0 7.0 0.00 0.00 0.00 63 1017.7
20260902162044 89 72 2.0 7.0 0.00 0.00 0.00 62 1017.8
20260902161603 89 207 1.0 5.0 0.00 0.00 0.00 64 1017.8
20260902161043 89 68 1.0 5.0 0.00 0.00 0.00 64 1017.7
20260902160540 89 86 1.0 4.0 0.00 0.00 0.00 64 1017.6
20260902160105 89 106 1.0 4.0 0.00 0.00 0.00 64 1017.7
20260902155541 89 161 1.0 4.0 0.00 0.00 0.00 64 1017.8
20260902155038 89 266 0.0 2.0 0.00 0.00 0.00 64 1017.8
20260902154559 88 113 0.0 4.0 0.00 0.00 0.00 66 1017.8
20260902154037 88 79 2.0 4.0 0.00 0.00 0.00 66 1017.7
20260902153541 88 110 0.0 4.0 0.00 0.00 0.00 66 1017.8
20260902153101 87 161 0.0 4.0 0.00 0.00 0.00 67 1017.7
20260902152541 87 98 0.0 4.0 0.00 0.00 0.00 66 1017.8
20260902152039 86 65 2.0 4.0 0.00 0.00 0.00 68 1017.8
20260902151602 86 66 0.0 3.0 0.00 0.00 0.00 69 1017.8
20260902151040 86 63 1.0 3.0 0.00 0.00 0.00 69 1017.8
20260902150540 85 0 0.0 2.0 0.00 0.00 0.00 71 1017.8
20260902150059 85 79 0.0 2.0 0.00 0.00 0.00 71 1017.6
20260902145541 85 194 0.0 1.0 0.00 0.00 0.00 72 1017.7
20260902145040 85 172 0.0 2.0 0.00 0.00 0.00 72 1017.7
20260902144604 85 0 0.0 2.0 0.00 0.00 0.00 72 1017.7
20260902144040 84 90 0.0 3.0 0.00 0.00 0.00 72 1017.8
20260902143537 84 20 1.0 3.0 0.00 0.00 0.00 72 1017.7
20260902143103 84 160 0.0 2.0 0.00 0.00 0.00 73 1017.7
20260902142540 84 203 0.0 2.0 0.00 0.00 0.00 73 1017.6
20260902142043 83 0 0.0 1.0 0.00 0.00 0.00 74 1017.6
20260902141558 84 191 0.0 2.0 0.00 0.00 0.00 74 1017.6
20260902141042 84 97 0.0 2.0 0.00 0.00 0.00 73 1017.6
20260902140539 83 0 0.0 3.0 0.00 0.00 0.00 74 1017.5
20260902140057 83 104 0.0 3.0 0.00 0.00 0.00 74 1017.6
20260902135538 83 97 0.0 4.0 0.00 0.00 0.00 74 1017.6
20260902135037 83 0 1.0 4.0 0.00 0.00 0.00 73 1017.5
20260902134607 83 104 1.0 5.0 0.00 0.00 0.00 72 1017.5
20260902134038 83 86 1.0 5.0 0.00 0.00 0.00 72 1017.4
20260902133539 84 84 0.0 4.0 0.00 0.00 0.00 72 1017.4
20260902133107 83 75 0.0 4.0 0.00 0.00 0.00 73 1017.3
20260902132538 83 75 1.0 4.0 0.00 0.00 0.00 72 1017.3
20260902132043 83 0 0.0 1.0 0.00 0.00 0.00 73 1017.3
20260902131600 82 104 0.0 2.0 0.00 0.00 0.00 74 1017.3
20260902131040 82 104 0.0 2.0 0.00 0.00 0.00 75 1017.2
20260902130540 82 94 0.0 2.0 0.00 0.00 0.00 75 1017.2
20260902130059 81 70 0.0 2.0 0.00 0.00 0.00 76 1017.2
20260902125541 81 0 0.0 2.0 0.00 0.00 0.00 77 1017.3
20260902125037 80 109 0.0 1.0 0.00 0.00 0.00 77 1017.2
20260902124602 80 0 0.0 0.0 0.00 0.00 0.00 79 1017.1
20260902124041 79 0 0.0 0.0 0.00 0.00 0.00 79 1017.1
20260902123540 78 0 0.0 0.0 0.00 0.00 0.00 80 1017.1
20260902123106 77 0 0.0 0.0 0.00 0.00 0.00 82 1017.0
20260902122540 76 0 0.0 0.0 0.00 0.00 0.00 82 1017.0
20260902122042 76 0 0.0 1.0 0.00 0.00 0.00 83 1017.0
20260902121559 76 0 0.0 1.0 0.00 0.00 0.00 83 1016.9
20260902121039 76 0 0.0 1.0 0.00 0.00 0.00 83 1016.8
20260902120538 75 0 0.0 0.0 0.00 0.00 0.00 84 1016.8
20260902120058 75 0 0.0 0.0 0.00 0.00 0.00 84 1016.7
20260902115538 75 0 0.0 1.0 0.00 0.00 0.00 84 1016.7
20260902115038 75 0 0.0 1.0 0.00 0.00 0.00 84 1016.7
20260902114601 75 0 0.0 0.0 0.00 0.00 0.00 84 1016.7
20260902114041 75 0 0.0 0.0 0.00 0.00 0.00 84 1016.7
20260902113539 75 0 0.0 0.0 0.00 0.00 0.00 84 1016.9
20260902113106 75 0 0.0 0.0 0.00 0.00 0.00 84 1016.9
20260902112543 75 0 0.0 0.0 0.00 0.00 0.00 84 1016.9
20260902112041 75 0 0.0 0.0 0.00 0.00 0.00 84 1016.9
20260902111606 75 0 0.0 0.0 0.00 0.00 0.00 84 1017.0
20260902111039 75 0 0.0 0.0 0.00 0.00 0.00 84 1016.9
20260902110544 75 0 0.0 0.0 0.00 0.00 0.00 84 1016.8
20260902105540 76 0 0.0 0.0 0.00 0.00 0.00 83 1016.7
20260902105037 76 0 0.0 0.0 0.00 0.00 0.00 83 1016.7
20260902104616 76 0 0.0 0.0 0.00 0.00 0.00 83 1016.8
20260902104038 76 0 0.0 0.0 0.00 0.00 0.00 83 1016.8
20260902103539 76 0 0.0 0.0 0.00 0.00 0.00 82 1016.7
20260902103105 76 0 0.0 0.0 0.00 0.00 0.00 82 1016.7
20260902102540 76 0 0.0 0.0 0.00 0.00 0.00 82 1016.7
20260902102040 76 0 0.0 0.0 0.00 0.00 0.00 82 1016.8
20260902101559 76 0 0.0 0.0 0.00 0.00 0.00 82 1016.8
20260902101037 76 0 0.0 0.0 0.00 0.00 0.00 82 1016.9
20260902100537 76 0 0.0 0.0 0.00 0.00 0.00 81 1016.8
20260902100057 77 0 0.0 0.0 0.00 0.00 0.00 81 1016.8
20260902095538 77 0 0.0 0.0 0.00 0.00 0.00 81 1016.9
20260902095038 77 0 0.0 0.0 0.00 0.00 0.00 81 1016.8
20260902094553 77 0 0.0 0.0 0.00 0.00 0.00 81 1016.8
20260902094037 77 0 0.0 0.0 0.00 0.00 0.00 81 1016.8
20260902093540 77 0 0.0 0.0 0.00 0.00 0.00 81 1016.7
20260902093106 77 0 0.0 0.0 0.00 0.00 0.00 80 1016.6
20260902092541 77 0 0.0 0.0 0.00 0.00 0.00 80 1016.6
20260902092039 77 0 0.0 0.0 0.00 0.00 0.00 80 1016.6
20260902091606 77 0 0.0 0.0 0.00 0.00 0.00 80 1016.7
20260902091037 78 0 0.0 0.0 0.00 0.00 0.00 80 1016.6
20260902090541 78 0 0.0 0.0 0.00 0.00 0.00 79 1016.6
20260902090119 78 0 0.0 0.0 0.00 0.00 0.00 79 1016.5
20260902085539 78 0 0.0 0.0 0.00 0.00 0.00 79 1016.4
20260902085040 78 0 0.0 0.0 0.00 0.00 0.00 79 1016.5
20260902084601 78 0 0.0 0.0 0.00 0.00 0.00 78 1016.4
20260902084039 78 0 0.0 0.0 0.00 0.00 0.00 78 1016.4
20260902083539 79 0 0.0 0.0 0.00 0.00 0.00 78 1016.4
20260902083055 79 0 0.0 0.0 0.00 0.00 0.00 78 1016.4
20260902082537 79 0 0.0 0.0 0.00 0.00 0.00 78 1016.4
20260902082040 79 0 0.0 0.0 0.00 0.00 0.00 77 1016.4
20260902081605 79 0 0.0 0.0 0.00 0.00 0.00 77 1016.5
20260902081037 79 0 0.0 0.0 0.00 0.00 0.00 77 1016.5
20260902080537 79 0 0.0 0.0 0.00 0.00 0.00 77 1016.5
20260902075539 79 0 0.0 0.0 0.00 0.00 0.00 77 1016.5
20260902075036 80 0 0.0 0.0 0.00 0.00 0.00 77 1016.4
20260902074609 80 0 0.0 0.0 0.00 0.00 0.00 77 1016.5
20260902074039 80 0 0.0 0.0 0.00 0.00 0.00 77 1016.5
20260902073540 80 0 0.0 0.0 0.00 0.00 0.00 77 1016.6
20260902073056 80 0 0.0 0.0 0.00 0.00 0.00 76 1016.6
20260902072538 80 0 0.0 0.0 0.00 0.00 0.00 76 1016.6
20260902072040 80 0 0.0 0.0 0.00 0.00 0.00 75 1016.6
20260902071558 80 0 0.0 0.0 0.00 0.00 0.00 75 1016.6
20260902071037 81 0 0.0 0.0 0.00 0.00 0.00 75 1016.6
20260902070539 81 0 0.0 0.0 0.00 0.00 0.00 75 1016.7
20260902065541 81 0 0.0 0.0 0.00 0.00 0.00 74 1016.7
20260902065037 81 0 0.0 0.0 0.00 0.00 0.00 74 1016.7
20260902064558 82 0 0.0 0.0 0.00 0.00 0.00 74 1016.6
20260902064039 82 0 0.0 0.0 0.00 0.00 0.00 73 1016.6